Location: Albany
(35.0000°S, 118.0000°E)
Time: 20:06:29
(UTC-04:00)

JAS-1B - Pass Details

Date: 26 February 2018
Orbit: 912 x 1743 km, 99.1° (Epoch: 24 June)

Event Time Altitude Azimuth Distance (km) Brightness Sun altitude
Rises 09:23:11 0° 153° (SSE) 4,697 10.8 -38.3°
Reaches altitude 10° 09:26:37 10° 141° (SE) 3,815 10.2 -38.7°
Enters shadow 09:29:55 20° 123° (ESE) 3,153 9.5 -39.1°
